TimeCDT,TemperatureF,Dew PointF,Humidity,Sea Level PressureIn,VisibilityMPH,Wind Direction,Wind SpeedMPH,Gust SpeedMPH,PrecipitationIn,Events,Conditions,WindDirDegrees,DateUTC
12:55 AM,52.2,34.7,51,29.99,10.0,North,15.0,-,N/A,,Clear,10,2012-11-03 05:55:00
1:55 AM,49.6,34.7,56,30.00,10.0,North,12.7,-,N/A,,Clear,350,2012-11-03 06:55:00
2:55 AM,47.3,30.7,53,30.02,10.0,North,15.0,21.9,N/A,,Clear,10,2012-11-03 07:55:00
3:55 AM,45.9,30.2,54,30.04,10.0,North,16.1,-,N/A,,Clear,10,2012-11-03 08:55:00
4:55 AM,44.4,30.7,59,30.07,10.0,North,13.8,-,N/A,,Clear,350,2012-11-03 09:55:00
5:55 AM,42.3,31.5,66,30.10,10.0,North,13.8,-,N/A,,Clear,360,2012-11-03 10:55:00
6:55 AM,40.8,31.8,70,30.13,10.0,North,10.4,-,N/A,,Clear,360,2012-11-03 11:55:00
7:55 AM,39.6,31.8,74,30.15,10.0,North,9.2,-,N/A,,Clear,360,2012-11-03 12:55:00
8:55 AM,39.9,31.5,72,30.18,10.0,North,10.4,-,N/A,,Clear,10,2012-11-03 13:55:00
9:55 AM,43.7,31.1,61,30.20,10.0,NNE,15.0,-,N/A,,Clear,30,2012-11-03 14:55:00
10:55 AM,48.4,31.8,53,30.21,10.0,NNE,13.8,-,N/A,,Clear,20,2012-11-03 15:55:00
11:55 AM,51.1,33.1,50,30.22,10.0,NNE,10.4,-,N/A,,Clear,20,2012-11-03 16:55:00
12:55 PM,54.9,33.3,44,30.20,10.0,NNE,10.4,-,N/A,,Clear,20,2012-11-03 17:55:00
1:55 PM,58.3,32.9,38,30.17,10.0,NNE,11.5,-,N/A,,Clear,30,2012-11-03 18:55:00
2:55 PM,61.2,33.1,35,30.17,10.0,NE,8.1,-,N/A,,Clear,40,2012-11-03 19:55:00
3:55 PM,61.5,32.7,34,30.17,10.0,NE,10.4,-,N/A,,Clear,40,2012-11-03 20:55:00
4:55 PM,58.3,33.8,40,30.17,9.0,NNE,11.5,-,N/A,,Clear,20,2012-11-03 21:55:00
5:55 PM,56.7,34.3,43,30.17,10.0,NE,6.9,-,N/A,,Clear,40,2012-11-03 22:55:00
6:55 PM,54.0,34.3,47,30.18,9.0,North,4.6,-,N/A,,Clear,10,2012-11-03 23:55:00
7:03 PM,53.6,33.8,47,30.18,3.0,NNW,3.5,-,N/A,,Haze,340,2012-11-04 00:03:00
7:55 PM,52.5,34.9,51,30.19,10.0,Calm,Calm,-,N/A,,Clear,0,2012-11-04 00:55:00
8:11 PM,53.6,33.8,47,30.20,4.0,Calm,Calm,-,N/A,,Haze,0,2012-11-04 01:11:00
8:12 PM,53.6,33.8,47,30.20,4.0,Calm,Calm,-,N/A,,Haze,0,2012-11-04 01:12:00
8:19 PM,53.6,35.6,51,30.20,2.5,Calm,Calm,-,N/A,,Haze,0,2012-11-04 01:19:00
8:20 PM,51.8,35.6,54,30.20,1.8,Calm,Calm,-,N/A,,Haze,0,2012-11-04 01:20:00
8:22 PM,51.8,35.6,54,30.20,1.2,Calm,Calm,-,N/A,,Haze,0,2012-11-04 01:22:00
8:23 PM,51.8,35.6,54,30.20,1.0,Calm,Calm,-,N/A,,Haze,0,2012-11-04 01:23:00
8:25 PM,51.8,35.6,54,30.20,0.8,Calm,Calm,-,N/A,,Haze,0,2012-11-04 01:25:00
8:27 PM,51.8,35.6,54,30.20,0.5,Calm,Calm,-,N/A,,Haze,0,2012-11-04 01:27:00
8:28 PM,51.8,35.6,54,30.20,0.5,Calm,Calm,-,N/A,,Haze,0,2012-11-04 01:28:00
8:29 PM,51.8,35.6,54,30.20,0.5,Calm,Calm,-,N/A,,Haze,0,2012-11-04 01:29:00
8:55 PM,49.5,34.7,57,30.21,0.5,NNE,3.5,-,N/A,,Haze,30,2012-11-04 01:55:00
9:16 PM,50.0,35.6,58,30.20,0.8,Calm,Calm,-,N/A,,Haze,0,2012-11-04 02:16:00
9:32 PM,50.0,35.6,58,30.20,0.8,Calm,Calm,-,N/A,,Haze,0,2012-11-04 02:32:00
9:44 PM,50.0,35.6,58,30.21,0.8,Calm,Calm,-,N/A,,Haze,0,2012-11-04 02:44:00
9:55 PM,48.9,35.4,60,30.21,0.8,Calm,Calm,-,N/A,,Haze,0,2012-11-04 02:55:00
10:04 PM,48.2,35.6,62,30.21,1.2,Calm,Calm,-,N/A,,Haze,0,2012-11-04 03:04:00
10:17 PM,48.2,35.6,62,30.21,1.0,Calm,Calm,-,N/A,,Haze,0,2012-11-04 03:17:00
10:20 PM,48.2,35.6,62,30.21,1.0,Calm,Calm,-,N/A,,Haze,0,2012-11-04 03:20:00
10:28 PM,48.2,35.6,62,30.21,0.8,Calm,Calm,-,N/A,,Haze,0,2012-11-04 03:28:00
10:31 PM,48.2,35.6,62,30.21,0.8,Calm,Calm,-,N/A,,Haze,0,2012-11-04 03:31:00
10:33 PM,48.2,35.6,62,30.21,1.0,Calm,Calm,-,N/A,,Haze,0,2012-11-04 03:33:00
10:36 PM,48.2,35.6,62,30.21,1.2,Calm,Calm,-,N/A,,Haze,0,2012-11-04 03:36:00
10:38 PM,48.2,35.6,62,30.21,1.5,Calm,Calm,-,N/A,,Haze,0,2012-11-04 03:38:00
10:40 PM,48.2,35.6,62,30.21,2.0,Calm,Calm,-,N/A,,Haze,0,2012-11-04 03:40:00
10:43 PM,48.2,35.6,62,30.21,1.8,Calm,Calm,-,N/A,,Haze,0,2012-11-04 03:43:00
10:46 PM,48.2,35.6,62,30.21,1.2,Calm,Calm,-,N/A,,Haze,0,2012-11-04 03:46:00
10:48 PM,48.2,35.6,62,30.21,1.0,Calm,Calm,-,N/A,,Haze,0,2012-11-04 03:48:00
10:55 PM,47.5,35.6,63,30.21,1.0,Calm,Calm,-,N/A,,Haze,0,2012-11-04 03:55:00
11:01 PM,46.4,35.6,66,30.21,1.2,NNE,3.5,-,N/A,,Haze,30,2012-11-04 04:01:00
11:04 PM,46.4,35.6,66,30.21,1.5,NNE,3.5,-,N/A,,Haze,30,2012-11-04 04:04:00
11:21 PM,46.4,35.6,66,30.22,2.0,NNE,4.6,-,N/A,,Haze,20,2012-11-04 04:21:00
11:41 PM,46.4,35.6,66,30.22,2.5,NNE,4.6,-,N/A,,Haze,20,2012-11-04 04:41:00
11:44 PM,46.4,35.6,66,30.22,3.0,NNE,4.6,-,N/A,,Haze,20,2012-11-04 04:44:00
11:47 PM,46.4,35.6,66,30.22,3.0,NNE,4.6,-,N/A,,Haze,20,2012-11-04 04:47:00
11:55 PM,46.6,36.3,67,30.22,4.0,NNE,4.6,-,N/A,,Haze,20,2012-11-04 04:55:00